Weather History for Flagstaff, AZ

Change the Weather History Date:

Friday, February 3, 2012

  Actual Average Record
Temperature  
Mean Temperature 23 °F 31 °F  
Max Temperature 36 °F 43 °F 64 °F (1953)
Min Temperature 9 °F 18 °F -22 °F (1922)
Degree Days  
Heating Degree Days 42 34  
Month to date heating degree days 110 102  
Since 1 July heating degree days 3846 4018  
Cooling Degree Days 0 0  
Month to date cooling degree days 0 0  
Year to date cooling degree days 0 0  
Moisture  
Dew Point 18 °F    
Average Humidity 78    
Maximum Humidity 100    
Minimum Humidity 56    
Precipitation  
Precipitation 0.00 in 0.07 in 1.35 in (1901)
Month to date precipitation 0.09 0.21  
Year to date precipitation 0.51 2.26  
Snow  
Snow 0.00 in 0.80 in 13.50 in (1901)
Month to date snowfall 2.0 2.4  
Since 1 July snowfall 52.2 54.7  
Snow Depth 0.00 in    
Sea Level Pressure  
Sea Level Pressure 30.08 in    
Wind  
Wind Speed 5 mph (ENE)    
Max Wind Speed 15 mph    
Max Gust Speed 20 mph    
Visibility 10 miles    
Events      
T = Trace of Precipitation, MM = Missing Value Source: NWS Daily Summary

Daily Weather History Graph

Daily Weather History Graph

Search for Another Location

Airport:

Trip Planner

Search our weather history database for the weather conditions in past years. The results will help you decide how hot, cold, wet, or windy it might be!

Date:

Astronomy

Feb. 03, 2012 Rise Set
Actual Time 7:24 AM MST 5:56 PM MST
Civil Twilight 6:57 AM MST 6:23 PM MST
Nautical Twilight 6:27 AM MST 6:53 PM MST
Astronomical Twilight 5:57 AM MST 7:23 PM MST
Moon 2:06 PM MST (2/3) 3:58 AM MST (2/3)
Length of Visible Light 11h 25m
Length of Day
10h 32m
Waxing Gibbous, 82% of the Moon is Illuminated
Feb 3
Waxing Gibbous
Feb 7
Full
Feb 14
Last Quarter
Feb 21
New
Feb 29
First Quarter

Hourly Weather History & Observations

Time (MST) Temp. Windchill Dew Point Humidity Pressure Visibility Wind Dir Wind Speed Gust Speed Precip Events Conditions
12:13 AM 17.6 °F - 17.6 °F 100% 29.96 in 1.0 mi Calm Calm - N/A   Mist
12:16 AM 17.6 °F - 15.8 °F 93% 29.96 in 2.0 mi Calm Calm - N/A   Scattered Clouds
12:23 AM 17.6 °F - 14.0 °F 86% 29.97 in 10.0 mi Calm Calm - N/A   Partly Cloudy
12:57 AM 18.0 °F - 16.0 °F 92% 30.00 in 10.0 mi Calm Calm - N/A   Mostly Cloudy
1:05 AM 17.6 °F - 15.8 °F 93% 29.97 in 10.0 mi Calm Calm - N/A   Mostly Cloudy
1:30 AM 17.6 °F - 14.0 °F 86% 29.97 in 10.0 mi Calm Calm - N/A   Partly Cloudy
1:57 AM 17.1 °F - 15.1 °F 92% 30.01 in 10.0 mi Calm Calm - N/A   Clear
2:57 AM 14.0 °F - 10.9 °F 88% 30.03 in 10.0 mi Calm Calm - N/A   Clear
3:57 AM 12.9 °F - 10.0 °F 88% 30.06 in 10.0 mi Calm Calm - N/A   Clear
4:57 AM 12.0 °F - 9.0 °F 88% 30.09 in 10.0 mi Calm Calm - N/A   Clear
5:57 AM 10.9 °F - 9.0 °F 92% 30.10 in 10.0 mi Calm Calm - N/A   Clear
6:57 AM 10.0 °F - 7.0 °F 87% 30.11 in 10.0 mi Calm Calm - N/A   Clear
7:57 AM 10.0 °F - 7.0 °F 87% 30.15 in 10.0 mi Calm Calm - N/A   Partly Cloudy
8:57 AM 19.9 °F - 19.0 °F 96% 30.12 in 10.0 mi Calm Calm - N/A   Clear
9:57 AM 28.0 °F 19.3 °F 25.0 °F 88% 30.09 in 10.0 mi ENE 9.2 mph - N/A   Clear
10:43 AM 30.2 °F 21.9 °F 24.8 °F 80% 30.07 in 10.0 mi East 9.2 mph - N/A   Mostly Cloudy
10:57 AM 30.9 °F 21.2 °F 25.0 °F 79% 30.09 in 10.0 mi NE 12.7 mph - N/A   Overcast
11:16 AM 30.2 °F 21.3 °F 23.0 °F 75% 30.07 in 10.0 mi NE 10.4 mph - N/A   Scattered Clouds
11:55 AM 33.8 °F 24.8 °F 24.8 °F 70% 30.07 in 10.0 mi NE 12.7 mph - N/A   Mostly Cloudy
11:57 AM 33.1 °F 24.9 °F 25.0 °F 72% 30.10 in 10.0 mi ENE 10.4 mph 19.6 mph N/A   Mostly Cloudy
12:04 PM 32.0 °F 22.5 °F 23.0 °F 69% 30.07 in 10.0 mi NE 12.7 mph - N/A   Scattered Clouds
12:57 PM 35.1 °F 26.9 °F 21.0 °F 57% 30.08 in 10.0 mi East 11.5 mph 16.1 mph N/A   Mostly Cloudy
1:57 PM 34.0 °F 29.8 °F 19.9 °F 56% 30.09 in 10.0 mi East 4.6 mph - N/A   Overcast
2:57 PM 34.0 °F 26.0 °F 21.0 °F 59% 30.12 in 10.0 mi East 10.4 mph - N/A   Overcast
3:57 PM 34.0 °F 27.2 °F 19.0 °F 54% 30.12 in 10.0 mi ENE 8.1 mph - N/A   Overcast
4:57 PM 34.0 °F 26.6 °F 21.9 °F 61% 30.14 in 10.0 mi NE 9.2 mph - N/A   Overcast
5:57 PM 30.9 °F 24.3 °F 21.9 °F 69% 30.17 in 10.0 mi ENE 6.9 mph - N/A   Clear
6:57 PM 28.9 °F 22.8 °F 21.9 °F 75% 30.19 in 10.0 mi ENE 5.8 mph - N/A   Clear
7:57 PM 27.0 °F 20.5 °F 19.9 °F 75% 30.21 in 10.0 mi ENE 5.8 mph - N/A   Clear
8:57 PM 26.1 °F 21.9 °F 19.9 °F 78% 30.18 in 10.0 mi East 3.5 mph - N/A   Clear
9:57 PM 25.0 °F 19.3 °F 19.0 °F 78% 30.15 in 10.0 mi East 4.6 mph - N/A   Clear
10:57 PM 24.1 °F 16.0 °F 19.0 °F 81% 30.14 in 10.0 mi ENE 6.9 mph - N/A   Clear
11:57 PM 25.0 °F 17.1 °F 21.0 °F 85% 30.12 in 10.0 mi ENE 6.9 mph - N/A   Clear